Total_Precipitation_Accumulation
1.14 1.16 1.05 1.02 0.92 1.07 1.33 1.53 1.47 1.61 1.72 1.56 1.31 1.15 1.04 0.88 0.73 0.63 0.62 0.74 0.74 0.79 0.95 1.01 1.03 1.00 0.98 0.92 0.86 0.81 0.75 0.72 0.61 0.44 0.31 0.26 0.24 0.23 0.21 0.22 0.21 0.22 0.18
1.44 1.49 1.38 1.26 1.02 1.10 1.31 1.56 1.60 1.75 1.74 1.73 1.37 1.24 1.10 1.05 0.92 0.83 0.78 0.86 0.87 0.79 0.80 0.91 1.01 1.08 1.11 1.07 0.93 0.77 0.72 0.70 0.62 0.49 0.38 0.30 0.26 0.26 0.29 0.32 0.30 0.23 0.15
1.79 1.82 1.64 1.38 1.26 1.43 1.52 1.53 1.58 1.93 1.77 1.61 1.38 1.43 1.37 1.26 1.08 0.97 0.95 0.91 0.77 0.73 0.71 0.73 0.85 0.99 1.16 1.21 1.13 0.97 0.79 0.68 0.58 0.45 0.37 0.30 0.24 0.23 0.26 0.30 0.34 0.29 0.19
1.84 1.98 1.67 1.37 1.53 1.72 1.67 1.59 1.63 1.84 1.83 1.88 1.74 1.61 1.49 1.34 1.04 0.94 0.91 0.81 0.75 0.57 0.60 0.72 0.80 0.88 1.16 1.32 1.34 1.32 1.07 0.78 0.55 0.42 0.36 0.31 0.27 0.22 0.19 0.19 0.25 0.30 0.23
1.29 1.34 1.03 0.97 1.25 1.33 1.21 1.18 1.43 1.57 1.57 1.70 1.70 1.44 1.23 1.05 0.88 0.82 0.80 0.63 0.65 0.61 0.55 0.66 0.75 0.82 1.11 1.38 1.57 1.61 1.43 1.12 0.81 0.58 0.52 0.44 0.37 0.28 0.20 0.18 0.19 0.25 0.23
0.85 0.89 0.72 0.72 0.99 1.04 0.96 1.08 1.18 1.23 1.17 1.24 1.16 0.91 0.87 0.75 0.74 0.70 0.58 0.55 0.53 0.49 0.52 0.59 0.70 0.64 0.91 1.22 1.43 1.52 1.53 1.36 1.07 0.84 0.75 0.66 0.58 0.44 0.28 0.20 0.19 0.20 0.19
0.74 0.83 0.72 0.80 0.95 0.94 0.92 0.97 1.03 0.96 0.80 0.98 1.03 0.75 0.60 0.56 0.57 0.52 0.48 0.46 0.39 0.38 0.46 0.56 0.65 0.69 0.59 0.68 0.99 1.18 1.47 1.56 1.32 1.04 0.91 0.85 0.79 0.63 0.43 0.32 0.25 0.20 0.17
0.63 0.72 0.66 0.58 0.63 0.65 0.60 0.65 0.81 0.83 0.73 0.87 0.95 0.82 0.58 0.53 0.48 0.36 0.38 0.37 0.34 0.41 0.50 0.53 0.64 0.77 0.77 0.80 0.69 0.73 1.09 1.39 1.49 1.38 1.21 0.99 0.83 0.67 0.56 0.50 0.38 0.26 0.21
0.39 0.46 0.49 0.50 0.55 0.62 0.60 0.60 0.65 0.68 0.62 0.64 0.78 0.89 0.68 0.46 0.39 0.36 0.35 0.32 0.36 0.47 0.56 0.65 0.69 0.70 0.76 0.89 0.88 0.81 0.89 0.96 1.39 1.66 1.45 1.10 0.75 0.58 0.55 0.60 0.55 0.38 0.31
0.27 0.30 0.33 0.34 0.41 0.52 0.58 0.54 0.54 0.57 0.56 0.49 0.55 0.64 0.65 0.60 0.52 0.40 0.38 0.39 0.42 0.51 0.66 0.75 0.82 0.78 0.76 0.81 0.94 0.98 0.84 0.77 1.00 1.31 1.40 1.31 1.01 0.71 0.57 0.65 0.85 0.79 0.52
0.26 0.27 0.28 0.28 0.31 0.35 0.39 0.42 0.49 0.52 0.54 0.49 0.48 0.55 0.62 0.65 0.64 0.56 0.45 0.43 0.41 0.38 0.52 0.70 0.82 0.84 0.77 0.84 1.00 1.06 1.03 0.88 0.73 0.73 0.96 1.15 1.13 0.92 0.74 0.80 1.14 1.35 1.21
0.26 0.29 0.30 0.30 0.32 0.33 0.34 0.36 0.39 0.43 0.49 0.53 0.52 0.56 0.65 0.69 0.65 0.64 0.56 0.49 0.45 0.41 0.46 0.63 0.86 0.97 0.92 0.91 0.83 0.80 0.78 0.67 0.59 0.58 0.64 0.75 0.85 0.86 0.85 0.99 1.27 1.56 1.71
0.23 0.27 0.32 0.34 0.37 0.37 0.37 0.38 0.38 0.40 0.47 0.54 0.55 0.53 0.56 0.62 0.69 0.71 0.65 0.56 0.58 0.58 0.68 0.72 0.78 0.88 0.86 0.88 0.80 0.64 0.46 0.39 0.36 0.38 0.48 0.63 0.77 0.91 0.94 0.93 1.09 1.29 1.46
0.24 0.28 0.29 0.30 0.34 0.36 0.37 0.39 0.36 0.36 0.46 0.54 0.60 0.68 0.65 0.58 0.74 0.81 0.77 0.76 0.73 0.78 0.93 0.87 0.78 0.76 0.78 0.80 0.70 0.57 0.38 0.30 0.26 0.23 0.24 0.26 0.31 0.42 0.52 0.59 0.70 0.84 0.97
0.26 0.28 0.29 0.30 0.32 0.34 0.37 0.39 0.40 0.44 0.51 0.55 0.63 0.76 0.82 0.78 0.78 0.83 0.89 0.93 0.97 0.93 0.92 0.89 0.78 0.71 0.69 0.65 0.57 0.49 0.34 0.27 0.25 0.23 0.21 0.19 0.19 0.21 0.23 0.26 0.30 0.35 0.41
0.22 0.26 0.32 0.33 0.33 0.35 0.42 0.48 0.48 0.49 0.57 0.66 0.78 0.87 0.91 0.95 0.93 0.87 0.91 0.95 0.97 1.03 1.00 0.84 0.76 0.77 0.68 0.51 0.47 0.40 0.31 0.31 0.28 0.25 0.23 0.21 0.19 0.21 0.21 0.20 0.18 0.19 0.21
0.20 0.24 0.29 0.34 0.34 0.41 0.59 0.76 0.75 0.66 0.72 0.82 0.91 1.01 1.05 1.10 1.10 1.00 0.95 0.93 0.93 1.01 0.96 0.82 0.76 0.77 0.65 0.49 0.41 0.35 0.30 0.28 0.25 0.26 0.23 0.20 0.19 0.19 0.20 0.19 0.16 0.14 0.14
0.18 0.17 0.19 0.24 0.27 0.33 0.48 0.80 0.97 0.99 0.96 0.89 0.94 1.10 1.18 1.14 1.05 0.99 0.99 0.96 0.95 1.03 0.98 0.90 0.87 0.81 0.73 0.62 0.51 0.43 0.33 0.28 0.24 0.28 0.25 0.21 0.19 0.17 0.16 0.15 0.14 0.12 0.12
0.18 0.17 0.18 0.23 0.28 0.29 0.35 0.56 0.78 0.90 0.93 0.89 0.95 0.99 1.02 1.08 1.06 0.98 0.92 0.91 0.91 1.02 1.01 0.93 1.00 0.98 0.87 0.75 0.61 0.49 0.40 0.34 0.27 0.25 0.26 0.24 0.21 0.16 0.14 0.13 0.12 0.11 0.10
0.17 0.20 0.23 0.28 0.29 0.26 0.27 0.40 0.55 0.65 0.70 0.75 0.81 0.85 0.89 0.92 0.97 1.01 0.96 0.91 0.94 0.96 0.98 0.97 1.03 1.17 1.07 0.90 0.70 0.57 0.46 0.39 0.34 0.24 0.23 0.26 0.24 0.18 0.15 0.13 0.11 0.10 0.09
0.13 0.18 0.25 0.28 0.26 0.23 0.27 0.39 0.44 0.40 0.45 0.50 0.53 0.54 0.66 0.82 0.92 0.97 0.94 0.91 0.94 0.94 0.94 1.00 1.05 1.19 1.22 1.04 0.79 0.59 0.48 0.43 0.38 0.32 0.24 0.19 0.17 0.14 0.12 0.12 0.12 0.10 0.07
0.17 0.20 0.22 0.25 0.24 0.20 0.25 0.30 0.28 0.26 0.29 0.34 0.36 0.34 0.35 0.48 0.67 0.80 0.83 0.83 0.88 0.92 0.95 0.96 1.04 1.13 1.19 1.09 0.89 0.73 0.57 0.44 0.41 0.37 0.34 0.27 0.17 0.15 0.11 0.08 0.09 0.09 0.07
0.22 0.25 0.26 0.28 0.28 0.28 0.22 0.19 0.16 0.18 0.22 0.29 0.32 0.30 0.24 0.23 0.36 0.49 0.60 0.67 0.70 0.71 0.79 0.93 1.04 1.06 1.16 1.18 1.07 0.88 0.73 0.58 0.43 0.36 0.34 0.34 0.25 0.15 0.11 0.11 0.11 0.08 0.07
0.28 0.31 0.32 0.35 0.39 0.37 0.27 0.18 0.14 0.14 0.19 0.27 0.30 0.28 0.25 0.25 0.27 0.32 0.42 0.51 0.57 0.57 0.57 0.67 0.84 1.03 1.18 1.30 1.24 1.13 1.00 0.84 0.66 0.50 0.38 0.34 0.29 0.20 0.14 0.12 0.11 0.08 0.06
0.36 0.36 0.38 0.41 0.47 0.50 0.39 0.24 0.18 0.18 0.24 0.27 0.30 0.28 0.27 0.23 0.21 0.22 0.30 0.37 0.42 0.51 0.54 0.58 0.70 0.93 1.11 1.26 1.39 1.31 1.15 0.93 0.75 0.59 0.42 0.30 0.24 0.21 0.18 0.13 0.11 0.10 0.07
0.44 0.42 0.40 0.43 0.49 0.58 0.49 0.30 0.23 0.25 0.33 0.35 0.39 0.37 0.29 0.25 0.20 0.17 0.23 0.31 0.34 0.37 0.44 0.50 0.58 0.74 0.92 1.04 1.18 1.17 1.01 0.87 0.69 0.56 0.41 0.27 0.21 0.17 0.17 0.15 0.10 0.08 0.06